| time (UTC) | temp F | wind direction | speed MPH | gust MPH | rain 1hr in | rain 24hr in | rain mn in | humidity % | barometer mb |
| 20260906105353 | 79 | 141 | 0.0 | 0.0 | 0.00 | 0.00 | 0.00 | 74 | 1012.8 |
| 20260906104843 | 79 | 141 | 0.0 | 0.0 | 0.00 | 0.00 | 0.00 | 74 | 1012.8 |
| 20260906104834 | 79 | 159 | 0.0 | 0.0 | 0.00 | 0.00 | 0.00 | 74 | 1012.8 |
| 20260906103823 | 79 | 186 | 0.0 | 0.0 | 0.00 | 0.00 | 0.00 | 73 | 1012.9 |
| 20260906103814 | 79 | 188 | 0.0 | 0.0 | 0.00 | 0.00 | 0.00 | 73 | 1012.9 |
| 20260906102803 | 79 | 189 | 0.0 | 0.0 | 0.00 | 0.00 | 0.00 | 73 | 1012.8 |
| 20260906102253 | 80 | 190 | 0.0 | 0.0 | 0.00 | 0.00 | 0.00 | 73 | 1012.8 |
| 20260906101743 | 80 | 189 | 0.0 | 0.0 | 0.00 | 0.00 | 0.00 | 72 | 1012.7 |
| 20260906101233 | 80 | 207 | 0.0 | 0.0 | 0.00 | 0.00 | 0.00 | 72 | 1012.6 |
| 20260906100723 | 80 | 207 | 0.0 | 0.0 | 0.00 | 0.00 | 0.00 | 72 | 1012.6 |
| 20260906100213 | 80 | 207 | 0.0 | 0.0 | 0.00 | 0.00 | 0.00 | 72 | 1012.5 |
| 20260906095703 | 80 | 207 | 0.0 | 0.0 | 0.00 | 0.00 | 0.00 | 72 | 1012.4 |
| 20260906095154 | 80 | 207 | 0.0 | 0.0 | 0.00 | 0.00 | 0.00 | 72 | 1012.3 |
| 20260906094644 | 80 | 209 | 0.0 | 0.0 | 0.00 | 0.00 | 0.00 | 72 | 1012.3 |
| 20260906094634 | 80 | 209 | 0.0 | 0.0 | 0.00 | 0.00 | 0.00 | 72 | 1012.1 |
| 20260906093622 | 80 | 210 | 0.0 | 0.0 | 0.00 | 0.00 | 0.00 | 71 | 1012.1 |
| 20260906093105 | 80 | 210 | 0.0 | 2.0 | 0.00 | 0.00 | 0.00 | 71 | 1012.2 |
| 20260906093047 | 80 | 211 | 0.0 | 1.0 | 0.00 | 0.00 | 0.00 | 71 | 1012.1 |
| 20260906092652 | 80 | 210 | 0.0 | 2.0 | 0.00 | 0.00 | 0.00 | 71 | 1012.1 |
| 20260906091535 | 81 | 211 | 0.0 | 1.0 | 0.00 | 0.00 | 0.00 | 71 | 1012.2 |
| 20260906091025 | 81 | 213 | 0.0 | 1.0 | 0.00 | 0.00 | 0.00 | 71 | 1012.2 |
| 20260906090515 | 81 | 214 | 0.0 | 2.0 | 0.00 | 0.00 | 0.00 | 71 | 1012.2 |
| 20260906090005 | 81 | 215 | 0.0 | 2.0 | 0.00 | 0.00 | 0.00 | 71 | 1012.1 |
| 20260906085957 | 81 | 214 | 0.0 | 3.0 | 0.00 | 0.00 | 0.00 | 70 | 1012.1 |
| 20260906084945 | 81 | 216 | 0.0 | 3.0 | 0.00 | 0.00 | 0.00 | 70 | 1012.1 |
| 20260906084435 | 81 | 208 | 0.0 | 3.0 | 0.00 | 0.00 | 0.00 | 70 | 1012.0 |
| 20260906083917 | 81 | 233 | 1.0 | 5.0 | 0.00 | 0.00 | 0.00 | 70 | 1012.0 |
| 20260906083407 | 81 | 228 | 1.0 | 6.0 | 0.00 | 0.00 | 0.00 | 70 | 1012.0 |
| 20260906082857 | 82 | 203 | 2.0 | 5.0 | 0.00 | 0.00 | 0.00 | 70 | 1012.0 |
| 20260906082347 | 82 | 195 | 2.0 | 8.0 | 0.00 | 0.00 | 0.00 | 69 | 1012.1 |
| 20260906081837 | 82 | 200 | 2.0 | 6.0 | 0.00 | 0.00 | 0.00 | 69 | 1012.0 |
| 20260906081327 | 82 | 199 | 2.0 | 8.0 | 0.00 | 0.00 | 0.00 | 69 | 1012.0 |
| 20260906080817 | 82 | 165 | 2.0 | 7.0 | 0.00 | 0.00 | 0.00 | 69 | 1012.0 |
| 20260906080307 | 82 | 200 | 2.0 | 5.0 | 0.00 | 0.00 | 0.00 | 69 | 1012.1 |
| 20260906075757 | 82 | 234 | 2.0 | 7.0 | 0.00 | 0.00 | 0.00 | 69 | 1012.2 |
| 20260906075240 | 82 | 166 | 2.0 | 7.0 | 0.00 | 0.00 | 0.00 | 69 | 1012.2 |
| 20260906074729 | 82 | 161 | 2.0 | 8.0 | 0.00 | 0.00 | 0.00 | 69 | 1012.2 |
| 20260906074721 | 83 | 181 | 2.0 | 8.0 | 0.00 | 0.00 | 0.00 | 68 | 1012.3 |
| 20260906073709 | 83 | 236 | 2.0 | 6.0 | 0.00 | 0.00 | 0.00 | 68 | 1012.2 |
| 20260906073701 | 83 | 222 | 2.0 | 9.0 | 0.00 | 0.00 | 0.00 | 68 | 1012.1 |
| 20260906072649 | 83 | 230 | 2.0 | 9.0 | 0.00 | 0.00 | 0.00 | 68 | 1012.2 |
| 20260906072140 | 83 | 204 | 2.0 | 8.0 | 0.00 | 0.00 | 0.00 | 68 | 1012.3 |
| 20260906071629 | 83 | 170 | 3.0 | 8.0 | 0.00 | 0.00 | 0.00 | 68 | 1012.3 |
| 20260906071120 | 83 | 155 | 4.0 | 10.0 | 0.00 | 0.00 | 0.00 | 68 | 1012.3 |
| 20260906070609 | 83 | 210 | 4.0 | 10.0 | 0.00 | 0.00 | 0.00 | 67 | 1012.4 |
| 20260906070055 | 83 | 170 | 4.0 | 11.0 | 0.00 | 0.00 | 0.00 | 67 | 1012.4 |
| 20260906065546 | 83 | 169 | 3.0 | 11.0 | 0.00 | 0.00 | 0.00 | 67 | 1012.5 |
| 20260906065036 | 83 | 186 | 3.0 | 9.0 | 0.00 | 0.00 | 0.00 | 67 | 1012.5 |
| 20260906064525 | 84 | 225 | 4.0 | 11.0 | 0.00 | 0.00 | 0.00 | 67 | 1012.5 |
| 20260906064016 | 84 | 121 | 5.0 | 11.0 | 0.00 | 0.00 | 0.00 | 67 | 1012.5 |
| 20260906064011 | 84 | 189 | 3.0 | 8.0 | 0.00 | 0.00 | 0.00 | 66 | 1012.5 |
| 20260906063001 | 84 | 178 | 3.0 | 8.0 | 0.00 | 0.00 | 0.00 | 66 | 1012.6 |
| 20260906062459 | 84 | 147 | 2.0 | 8.0 | 0.00 | 0.00 | 0.00 | 66 | 1012.6 |
| 20260906062454 | 84 | 180 | 2.0 | 4.0 | 0.00 | 0.00 | 0.00 | 66 | 1012.6 |
| 20260906061948 | 84 | 206 | 2.0 | 4.0 | 0.00 | 0.00 | 0.00 | 66 | 1012.7 |
| 20260906060944 | 84 | 190 | 1.0 | 4.0 | 0.00 | 0.00 | 0.00 | 66 | 1012.7 |
| 20260906060440 | 84 | 174 | 1.0 | 3.0 | 0.00 | 0.00 | 0.00 | 66 | 1012.7 |
| 20260906060434 | 85 | 221 | 2.0 | 6.0 | 0.00 | 0.00 | 0.00 | 66 | 1012.7 |
| 20260906055436 | 85 | 191 | 2.0 | 4.0 | 0.00 | 0.00 | 0.00 | 66 | 1012.6 |
| 20260906055431 | 85 | 207 | 1.0 | 7.0 | 0.00 | 0.00 | 0.00 | 66 | 1012.7 |
| 20260906054916 | 85 | 201 | 1.0 | 5.0 | 0.00 | 0.00 | 0.00 | 65 | 1012.6 |
| 20260906053905 | 85 | 184 | 2.0 | 7.0 | 0.00 | 0.00 | 0.00 | 65 | 1012.6 |
| 20260906053401 | 85 | 210 | 2.0 | 7.0 | 0.00 | 0.00 | 0.00 | 65 | 1012.5 |
| 20260906053357 | 85 | 195 | 2.0 | 7.0 | 0.00 | 0.00 | 0.00 | 65 | 1012.5 |
| 20260906052352 | 85 | 209 | 2.0 | 7.0 | 0.00 | 0.00 | 0.00 | 65 | 1012.5 |
| 20260906051849 | 85 | 205 | 2.0 | 8.0 | 0.00 | 0.00 | 0.00 | 64 | 1012.5 |
| 20260906051343 | 85 | 206 | 2.0 | 8.0 | 0.00 | 0.00 | 0.00 | 64 | 1012.5 |
| 20260906050838 | 85 | 174 | 3.0 | 8.0 | 0.00 | 0.00 | 0.00 | 64 | 1012.5 |
| 20260906050331 | 85 | 207 | 3.0 | 8.0 | 0.00 | 0.00 | 0.00 | 64 | 1012.5 |
| 20260906050326 | 86 | 126 | 3.0 | 7.0 | 0.00 | 0.00 | 0.00 | 63 | 1012.4 |
| 20260906045814 | 86 | 164 | 3.0 | 7.0 | 0.00 | 0.00 | 0.00 | 63 | 1012.5 |
| 20260906044804 | 86 | 146 | 3.0 | 8.0 | 0.00 | 0.00 | 0.00 | 63 | 1012.6 |
| 20260906044253 | 86 | 143 | 3.0 | 8.0 | 0.00 | 0.00 | 0.00 | 63 | 1012.6 |
| 20260906043744 | 86 | 128 | 3.0 | 7.0 | 0.00 | 0.00 | 0.00 | 62 | 1012.5 |
| 20260906043233 | 86 | 166 | 4.0 | 7.0 | 0.00 | 0.00 | 0.00 | 62 | 1012.5 |
| 20260906042724 | 86 | 163 | 3.0 | 7.0 | 0.00 | 0.00 | 0.00 | 62 | 1012.4 |
| 20260906042213 | 86 | 159 | 3.0 | 8.0 | 0.00 | 0.00 | 0.00 | 62 | 1012.3 |
| 20260906041724 | 86 | 150 | 3.0 | 8.0 | 0.00 | 0.00 | 0.00 | 61 | 1012.4 |
| 20260906041153 | 86 | 146 | 3.0 | 7.0 | 0.00 | 0.00 | 0.00 | 61 | 1012.4 |
| 20260906040644 | 86 | 151 | 3.0 | 7.0 | 0.00 | 0.00 | 0.00 | 61 | 1012.3 |
| 20260906040134 | 86 | 139 | 4.0 | 8.0 | 0.00 | 0.00 | 0.00 | 61 | 1012.4 |
| 20260906035624 | 87 | 156 | 4.0 | 10.0 | 0.00 | 0.00 | 0.00 | 61 | 1012.4 |
| 20260906035113 | 87 | 142 | 4.0 | 10.0 | 0.00 | 0.00 | 0.00 | 60 | 1012.3 |
| 20260906034603 | 87 | 143 | 4.0 | 8.0 | 0.00 | 0.00 | 0.00 | 60 | 1012.3 |
| 20260906034555 | 87 | 161 | 4.0 | 10.0 | 0.00 | 0.00 | 0.00 | 60 | 1012.4 |
| 20260906033544 | 87 | 150 | 4.0 | 10.0 | 0.00 | 0.00 | 0.00 | 60 | 1012.4 |
| 20260906033033 | 87 | 199 | 5.0 | 13.0 | 0.00 | 0.00 | 0.00 | 60 | 1012.4 |
| 20260906032523 | 87 | 120 | 5.0 | 13.0 | 0.00 | 0.00 | 0.00 | 59 | 1012.4 |
| 20260906032013 | 87 | 136 | 5.0 | 10.0 | 0.00 | 0.00 | 0.00 | 59 | 1012.5 |
| 20260906031455 | 87 | 177 | 4.0 | 10.0 | 0.00 | 0.00 | 0.00 | 59 | 1012.4 |
| 20260906030945 | 87 | 139 | 4.0 | 12.0 | 0.00 | 0.00 | 0.00 | 59 | 1012.4 |
| 20260906030935 | 87 | 147 | 5.0 | 12.0 | 0.00 | 0.00 | 0.00 | 58 | 1012.4 |
| 20260906025925 | 88 | 125 | 5.0 | 11.0 | 0.00 | 0.00 | 0.00 | 58 | 1012.4 |
| 20260906025916 | 88 | 124 | 5.0 | 12.0 | 0.00 | 0.00 | 0.00 | 58 | 1012.4 |
| 20260906024905 | 88 | 117 | 4.0 | 12.0 | 0.00 | 0.00 | 0.00 | 58 | 1012.4 |
| 20260906024858 | 88 | 139 | 4.0 | 10.0 | 0.00 | 0.00 | 0.00 | 58 | 1012.3 |
| 20260906023856 | 88 | 152 | 5.0 | 13.0 | 0.00 | 0.00 | 0.00 | 58 | 1012.3 |
| 20260906023357 | 88 | 139 | 4.0 | 10.0 | 0.00 | 0.00 | 0.00 | 57 | 1012.1 |
| 20260906022847 | 88 | 124 | 4.0 | 11.0 | 0.00 | 0.00 | 0.00 | 57 | 1012.1 |
| 20260906022337 | 88 | 159 | 5.0 | 11.0 | 0.00 | 0.00 | 0.00 | 57 | 1011.9 |
| 20260906021827 | 88 | 138 | 6.0 | 13.0 | 0.00 | 0.00 | 0.00 | 57 | 1011.9 |
| 20260906021317 | 88 | 122 | 6.0 | 13.0 | 0.00 | 0.00 | 0.00 | 57 | 1011.7 |
| 20260906020807 | 88 | 145 | 6.0 | 12.0 | 0.00 | 0.00 | 0.00 | 56 | 1011.7 |
| 20260906020256 | 89 | 157 | 7.0 | 14.0 | 0.00 | 0.00 | 0.00 | 56 | 1011.7 |
| 20260906015747 | 89 | 127 | 6.0 | 14.0 | 0.00 | 0.00 | 0.00 | 56 | 1011.6 |
| 20260906015235 | 89 | 114 | 6.0 | 12.0 | 0.00 | 0.00 | 0.00 | 55 | 1011.5 |
| 20260906014725 | 89 | 141 | 7.0 | 17.0 | 0.00 | 0.00 | 0.00 | 55 | 1011.5 |
| 20260906014215 | 89 | 147 | 7.0 | 17.0 | 0.00 | 0.00 | 0.00 | 54 | 1011.3 |
| 20260906013705 | 90 | 129 | 6.0 | 16.0 | 0.00 | 0.00 | 0.00 | 54 | 1011.2 |
| 20260906013155 | 90 | 128 | 5.0 | 13.0 | 0.00 | 0.00 | 0.00 | 54 | 1011.1 |
| 20260906012645 | 90 | 151 | 6.0 | 17.0 | 0.00 | 0.00 | 0.00 | 53 | 1011.1 |
| 20260906012134 | 90 | 138 | 7.0 | 17.0 | 0.00 | 0.00 | 0.00 | 53 | 1011.0 |
| 20260906011625 | 91 | 136 | 7.0 | 18.0 | 0.00 | 0.00 | 0.00 | 52 | 1010.8 |
| 20260906011617 | 91 | 129 | 7.0 | 18.0 | 0.00 | 0.00 | 0.00 | 51 | 1010.8 |
| 20260906011106 | 92 | 79 | 7.0 | 16.0 | 0.00 | 0.00 | 0.00 | 50 | 1010.8 |
| 20260906010555 | 93 | 80 | 8.0 | 23.0 | 0.00 | 0.00 | 0.00 | 49 | 1010.7 |
| 20260906005545 | 93 | 157 | 10.0 | 23.0 | 0.00 | 0.00 | 0.00 | 48 | 1010.7 |
| 20260906005123 | 95 | 86 | 8.0 | 20.0 | 0.00 | 0.00 | 0.00 | 46 | 1010.6 |
| 20260906004622 | 96 | 148 | 4.0 | 19.0 | 0.00 | 0.00 | 0.00 | 42 | 1010.5 |
| 20260906003502 | 96 | 109 | 4.0 | 12.0 | 0.00 | 0.00 | 0.00 | 40 | 1010.4 |
| 20260906002953 | 96 | 149 | 3.0 | 9.0 | 0.00 | 0.00 | 0.00 | 39 | 1010.4 |
| 20260906002443 | 96 | 134 | 3.0 | 9.0 | 0.00 | 0.00 | 0.00 | 39 | 1010.4 |
| 20260906001933 | 96 | 99 | 3.0 | 9.0 | 0.00 | 0.00 | 0.00 | 38 | 1010.4 |
| 20260906001421 | 97 | 136 | 4.0 | 12.0 | 0.00 | 0.00 | 0.00 | 38 | 1010.3 |
| 20260906000911 | 97 | 151 | 5.0 | 12.0 | 0.00 | 0.00 | 0.00 | 38 | 1010.3 |
| 20260906000403 | 97 | 61 | 5.0 | 11.0 | 0.00 | 0.00 | 0.00 | 38 | 1010.3 |
| 20260905235853 | 97 | 130 | 4.0 | 11.0 | 0.00 | 0.00 | 0.00 | 38 | 1010.2 |
| 20260905235844 | 97 | 102 | 3.0 | 8.0 | 0.00 | 0.00 | 0.00 | 38 | 1010.2 |
| 20260905234833 | 97 | 94 | 2.0 | 6.0 | 0.00 | 0.00 | 0.00 | 37 | 1010.2 |
| 20260905234316 | 97 | 139 | 2.0 | 6.0 | 0.00 | 0.00 | 0.00 | 37 | 1010.1 |
| 20260905233807 | 97 | 144 | 1.0 | 4.0 | 0.00 | 0.00 | 0.00 | 38 | 1010.1 |
| 20260905233258 | 97 | 89 | 1.0 | 6.0 | 0.00 | 0.00 | 0.00 | 37 | 1010.1 |
| 20260905232747 | 98 | 89 | 3.0 | 7.0 | 0.00 | 0.00 | 0.00 | 37 | 1010.2 |
| 20260905232242 | 98 | 126 | 4.0 | 8.0 | 0.00 | 0.00 | 0.00 | 36 | 1010.2 |
| 20260905231735 | 98 | 74 | 3.0 | 8.0 | 0.00 | 0.00 | 0.00 | 36 | 1010.2 |
| 20260905231226 | 98 | 111 | 3.0 | 11.0 | 0.00 | 0.00 | 0.00 | 36 | 1010.2 |
| 20260905231221 | 98 | 121 | 3.0 | 11.0 | 0.00 | 0.00 | 0.00 | 37 | 1010.1 |
| 20260905230210 | 98 | 159 | 2.0 | 8.0 | 0.00 | 0.00 | 0.00 | 37 | 1010.1 |
| 20260905225707 | 98 | 36 | 2.0 | 9.0 | 0.00 | 0.00 | 0.00 | 37 | 1010.0 |
| 20260905225159 | 98 | 28 | 2.0 | 9.0 | 0.00 | 0.00 | 0.00 | 37 | 1010.0 |
| 20260905224658 | 98 | 93 | 2.0 | 5.0 | 0.00 | 0.00 | 0.00 | 36 | 1010.0 |
| 20260905224154 | 98 | 63 | 1.0 | 5.0 | 0.00 | 0.00 | 0.00 | 36 | 1010.0 |
| 20260905223652 | 98 | 127 | 1.0 | 4.0 | 0.00 | 0.00 | 0.00 | 36 | 1010.0 |
| 20260905223150 | 98 | 145 | 2.0 | 5.0 | 0.00 | 0.00 | 0.00 | 36 | 1010.0 |
| 20260905222649 | 98 | 51 | 1.0 | 5.0 | 0.00 | 0.00 | 0.00 | 36 | 1010.0 |
| 20260905222141 | 99 | 82 | 3.0 | 9.0 | 0.00 | 0.00 | 0.00 | 36 | 1010.1 |
| 20260905221631 | 99 | 95 | 2.0 | 9.0 | 0.00 | 0.00 | 0.00 | 36 | 1010.2 |
| 20260905221126 | 98 | 66 | 2.0 | 8.0 | 0.00 | 0.00 | 0.00 | 37 | 1010.2 |
| 20260905220619 | 99 | 103 | 3.0 | 8.0 | 0.00 | 0.00 | 0.00 | 36 | 1010.2 |
| 20260905220614 | 99 | 55 | 3.0 | 9.0 | 0.00 | 0.00 | 0.00 | 36 | 1010.3 |
| 20260905215615 | 100 | 64 | 4.0 | 9.0 | 0.00 | 0.00 | 0.00 | 36 | 1010.3 |
| 20260905215110 | 100 | 76 | 4.0 | 9.0 | 0.00 | 0.00 | 0.00 | 35 | 1010.4 |
| 20260905214615 | 99 | 43 | 2.0 | 7.0 | 0.00 | 0.00 | 0.00 | 37 | 1010.4 |
| 20260905214610 | 100 | 55 | 2.0 | 9.0 | 0.00 | 0.00 | 0.00 | 36 | 1010.4 |
| 20260905213608 | 101 | 45 | 2.0 | 8.0 | 0.00 | 0.00 | 0.00 | 36 | 1010.5 |
| 20260905213107 | 100 | 24 | 1.0 | 6.0 | 0.00 | 0.00 | 0.00 | 37 | 1010.6 |
| 20260905212559 | 98 | 188 | 2.0 | 5.0 | 0.00 | 0.00 | 0.00 | 37 | 1010.6 |
| 20260905212044 | 98 | 174 | 3.0 | 8.0 | 0.00 | 0.00 | 0.00 | 37 | 1010.8 |
| 20260905211541 | 98 | 166 | 2.0 | 7.0 | 0.00 | 0.00 | 0.00 | 36 | 1010.8 |
| 20260905211123 | 100 | 82 | 1.0 | 8.0 | 0.00 | 0.00 | 0.00 | 35 | 1011.0 |
| 20260905210622 | 100 | 83 | 3.0 | 8.0 | 0.00 | 0.00 | 0.00 | 36 | 1011.1 |
| 20260905205506 | 101 | 190 | 4.0 | 9.0 | 0.00 | 0.00 | 0.00 | 36 | 1011.1 |
| 20260905205006 | 100 | 153 | 4.0 | 9.0 | 0.00 | 0.00 | 0.00 | 36 | 1011.2 |
| 20260905204459 | 102 | 121 | 3.0 | 10.0 | 0.00 | 0.00 | 0.00 | 35 | 1011.2 |
| 20260905204454 | 101 | 174 | 3.0 | 10.0 | 0.00 | 0.00 | 0.00 | 34 | 1011.2 |
| 20260905203445 | 100 | 164 | 2.0 | 8.0 | 0.00 | 0.00 | 0.00 | 35 | 1011.3 |
| 20260905202934 | 99 | 140 | 3.0 | 7.0 | 0.00 | 0.00 | 0.00 | 36 | 1011.4 |
| 20260905202428 | 100 | 131 | 3.0 | 8.0 | 0.00 | 0.00 | 0.00 | 36 | 1011.5 |
| 20260905201918 | 99 | 193 | 3.0 | 8.0 | 0.00 | 0.00 | 0.00 | 36 | 1011.5 |
| 20260905201408 | 100 | 29 | 3.0 | 8.0 | 0.00 | 0.00 | 0.00 | 36 | 1011.5 |
| 20260905200858 | 100 | 39 | 3.0 | 8.0 | 0.00 | 0.00 | 0.00 | 37 | 1011.5 |
| 20260905200850 | 99 | 94 | 3.0 | 7.0 | 0.00 | 0.00 | 0.00 | 37 | 1011.7 |
| 20260905195842 | 98 | 70 | 2.0 | 7.0 | 0.00 | 0.00 | 0.00 | 37 | 1011.8 |
| 20260905195329 | 99 | 114 | 3.0 | 9.0 | 0.00 | 0.00 | 0.00 | 36 | 1011.9 |
| 20260905194830 | 99 | 68 | 3.0 | 9.0 | 0.00 | 0.00 | 0.00 | 37 | 1012.0 |
| 20260905194320 | 98 | 125 | 3.0 | 6.0 | 0.00 | 0.00 | 0.00 | 37 | 1012.1 |
| 20260905193810 | 99 | 76 | 3.0 | 8.0 | 0.00 | 0.00 | 0.00 | 38 | 1012.1 |
| 20260905193301 | 98 | 76 | 3.0 | 8.0 | 0.00 | 0.00 | 0.00 | 39 | 1012.2 |
| 20260905192750 | 97 | 54 | 3.0 | 8.0 | 0.00 | 0.00 | 0.00 | 39 | 1012.3 |
| 20260905192234 | 98 | 194 | 3.0 | 10.0 | 0.00 | 0.00 | 0.00 | 40 | 1012.4 |
| 20260905191722 | 97 | 66 | 2.0 | 10.0 | 0.00 | 0.00 | 0.00 | 41 | 1012.5 |
| 20260905191212 | 98 | 60 | 2.0 | 6.0 | 0.00 | 0.00 | 0.00 | 39 | 1012.6 |
| 20260905190703 | 98 | 76 | 2.0 | 7.0 | 0.00 | 0.00 | 0.00 | 40 | 1012.7 |
| 20260905190653 | 97 | 188 | 2.0 | 8.0 | 0.00 | 0.00 | 0.00 | 41 | 1012.8 |
| 20260905190144 | 98 | 316 | 3.0 | 8.0 | 0.00 | 0.00 | 0.00 | 41 | 1012.9 |
| 20260905185132 | 98 | 320 | 3.0 | 9.0 | 0.00 | 0.00 | 0.00 | 39 | 1013.0 |
| 20260905184622 | 99 | 233 | 3.0 | 9.0 | 0.00 | 0.00 | 0.00 | 38 | 1013.1 |
| 20260905184614 | 98 | 247 | 3.0 | 9.0 | 0.00 | 0.00 | 0.00 | 39 | 1013.2 |
| 20260905184106 | 98 | 141 | 4.0 | 10.0 | 0.00 | 0.00 | 0.00 | 38 | 1013.2 |
| 20260905183106 | 96 | 105 | 4.0 | 10.0 | 0.00 | 0.00 | 0.00 | 40 | 1013.3 |
| 20260905182552 | 96 | 130 | 3.0 | 10.0 | 0.00 | 0.00 | 0.00 | 40 | 1013.3 |
| 20260905182043 | 97 | 194 | 3.0 | 9.0 | 0.00 | 0.00 | 0.00 | 42 | 1013.3 |
| 20260905181524 | 97 | 159 | 2.0 | 8.0 | 0.00 | 0.00 | 0.00 | 42 | 1013.5 |
| 20260905181014 | 97 | 298 | 2.0 | 8.0 | 0.00 | 0.00 | 0.00 | 43 | 1013.6 |
| 20260905181005 | 94 | 77 | 2.0 | 8.0 | 0.00 | 0.00 | 0.00 | 44 | 1013.8 |
| 20260905180455 | 95 | 114 | 3.0 | 8.0 | 0.00 | 0.00 | 0.00 | 44 | 1013.9 |
| 20260905175937 | 94 | 205 | 4.0 | 8.0 | 0.00 | 0.00 | 0.00 | 44 | 1013.9 |
| 20260905175426 | 96 | 195 | 3.0 | 8.0 | 0.00 | 0.00 | 0.00 | 42 | 1014.0 |
| 20260905174414 | 97 | 43 | 3.0 | 9.0 | 0.00 | 0.00 | 0.00 | 41 | 1013.9 |
| 20260905173905 | 96 | 65 | 3.0 | 9.0 | 0.00 | 0.00 | 0.00 | 42 | 1014.0 |
| 20260905173354 | 96 | 122 | 3.0 | 10.0 | 0.00 | 0.00 | 0.00 | 42 | 1014.1 |
| 20260905172844 | 94 | 116 | 4.0 | 10.0 | 0.00 | 0.00 | 0.00 | 43 | 1014.2 |
| 20260905172835 | 95 | 171 | 2.0 | 9.0 | 0.00 | 0.00 | 0.00 | 44 | 1014.1 |
| 20260905171823 | 95 | 291 | 3.0 | 8.0 | 0.00 | 0.00 | 0.00 | 44 | 1014.2 |
| 20260905171314 | 94 | 153 | 2.0 | 8.0 | 0.00 | 0.00 | 0.00 | 44 | 1014.3 |
| 20260905170805 | 95 | 48 | 2.0 | 5.0 | 0.00 | 0.00 | 0.00 | 44 | 1014.3 |
| 20260905170254 | 95 | 9 | 1.0 | 5.0 | 0.00 | 0.00 | 0.00 | 45 | 1014.3 |
| 20260905170236 | 94 | 93 | 2.0 | 8.0 | 0.00 | 0.00 | 0.00 | 46 | 1014.4 |
| 20260905165840 | 97 | 92 | 2.0 | 6.0 | 0.00 | 0.00 | 0.00 | 43 | 1014.3 |
| 20260905164724 | 95 | 155 | 1.0 | 8.0 | 0.00 | 0.00 | 0.00 | 45 | 1014.5 |
| 20260905164214 | 95 | 59 | 2.0 | 4.0 | 0.00 | 0.00 | 0.00 | 45 | 1014.5 |
| 20260905163704 | 93 | 64 | 2.0 | 8.0 | 0.00 | 0.00 | 0.00 | 48 | 1014.6 |
| 20260905163154 | 93 | 203 | 2.0 | 7.0 | 0.00 | 0.00 | 0.00 | 49 | 1014.6 |
| 20260905162636 | 93 | 120 | 2.0 | 7.0 | 0.00 | 0.00 | 0.00 | 48 | 1014.6 |
| 20260905162127 | 91 | 118 | 3.0 | 8.0 | 0.00 | 0.00 | 0.00 | 51 | 1014.5 |
| 20260905161617 | 92 | 138 | 2.0 | 8.0 | 0.00 | 0.00 | 0.00 | 51 | 1014.4 |
| 20260905161109 | 91 | 250 | 1.0 | 5.0 | 0.00 | 0.00 | 0.00 | 52 | 1014.4 |
| 20260905160558 | 92 | 224 | 1.0 | 5.0 | 0.00 | 0.00 | 0.00 | 52 | 1014.5 |
| 20260905160050 | 91 | 326 | 2.0 | 5.0 | 0.00 | 0.00 | 0.00 | 53 | 1014.5 |
| 20260905155538 | 91 | 262 | 1.0 | 5.0 | 0.00 | 0.00 | 0.00 | 53 | 1014.5 |
| 20260905155029 | 92 | 342 | 1.0 | 5.0 | 0.00 | 0.00 | 0.00 | 52 | 1014.5 |
| 20260905154518 | 91 | 334 | 2.0 | 5.0 | 0.00 | 0.00 | 0.00 | 54 | 1014.5 |
| 20260905154009 | 91 | 342 | 2.0 | 5.0 | 0.00 | 0.00 | 0.00 | 53 | 1014.5 |
| 20260905153459 | 91 | 245 | 2.0 | 5.0 | 0.00 | 0.00 | 0.00 | 55 | 1014.6 |
| 20260905152949 | 89 | 262 | 1.0 | 5.0 | 0.00 | 0.00 | 0.00 | 55 | 1014.6 |
| 20260905152938 | 89 | 291 | 2.0 | 7.0 | 0.00 | 0.00 | 0.00 | 55 | 1014.6 |
| 20260905151928 | 89 | 272 | 2.0 | 7.0 | 0.00 | 0.00 | 0.00 | 56 | 1014.4 |
| 20260905151427 | 89 | 248 | 2.0 | 7.0 | 0.00 | 0.00 | 0.00 | 57 | 1014.4 |
| 20260905150916 | 89 | 211 | 3.0 | 7.0 | 0.00 | 0.00 | 0.00 | 56 | 1014.3 |
| 20260905150907 | 89 | 232 | 3.0 | 6.0 | 0.00 | 0.00 | 0.00 | 56 | 1014.3 |
| 20260905145856 | 89 | 297 | 3.0 | 8.0 | 0.00 | 0.00 | 0.00 | 56 | 1014.3 |
| 20260905145344 | 88 | 256 | 3.0 | 8.0 | 0.00 | 0.00 | 0.00 | 57 | 1014.3 |
| 20260905144826 | 87 | 219 | 2.0 | 5.0 | 0.00 | 0.00 | 0.00 | 60 | 1014.4 |
| 20260905144817 | 87 | 176 | 2.0 | 6.0 | 0.00 | 0.00 | 0.00 | 63 | 1014.3 |
| 20260905143807 | 86 | 238 | 2.0 | 6.0 | 0.00 | 0.00 | 0.00 | 63 | 1014.4 |
| 20260905143300 | 86 | 285 | 2.0 | 6.0 | 0.00 | 0.00 | 0.00 | 63 | 1014.5 |
| 20260905142752 | 85 | 272 | 2.0 | 6.0 | 0.00 | 0.00 | 0.00 | 65 | 1014.4 |
| 20260905142245 | 85 | 171 | 2.0 | 6.0 | 0.00 | 0.00 | 0.00 | 65 | 1014.4 |
| 20260905141736 | 85 | 245 | 2.0 | 6.0 | 0.00 | 0.00 | 0.00 | 66 | 1014.4 |
| 20260905141228 | 83 | 262 | 1.0 | 4.0 | 0.00 | 0.00 | 0.00 | 69 | 1014.3 |
| 20260905141222 | 83 | 196 | 1.0 | 5.0 | 0.00 | 0.00 | 0.00 | 69 | 1014.3 |
| 20260905140214 | 83 | 224 | 1.0 | 5.0 | 0.00 | 0.00 | 0.00 | 69 | 1014.3 |
| 20260905135709 | 82 | 232 | 2.0 | 6.0 | 0.00 | 0.00 | 0.00 | 70 | 1014.3 |
| 20260905135202 | 82 | 218 | 2.0 | 5.0 | 0.00 | 0.00 | 0.00 | 70 | 1014.3 |
| 20260905134656 | 82 | 219 | 2.0 | 6.0 | 0.00 | 0.00 | 0.00 | 71 | 1014.2 |
| 20260905134149 | 81 | 225 | 1.0 | 5.0 | 0.00 | 0.00 | 0.00 | 72 | 1014.2 |
| 20260905133642 | 80 | 239 | 1.0 | 4.0 | 0.00 | 0.00 | 0.00 | 74 | 1014.2 |
| 20260905133140 | 79 | 228 | 1.0 | 6.0 | 0.00 | 0.00 | 0.00 | 75 | 1014.1 |
| 20260905132631 | 79 | 199 | 2.0 | 6.0 | 0.00 | 0.00 | 0.00 | 75 | 1014.0 |
| 20260905132126 | 79 | 184 | 3.0 | 6.0 | 0.00 | 0.00 | 0.00 | 75 | 1014.0 |
| 20260905131622 | 79 | 180 | 2.0 | 5.0 | 0.00 | 0.00 | 0.00 | 76 | 1014.0 |
| 20260905131117 | 78 | 197 | 1.0 | 4.0 | 0.00 | 0.00 | 0.00 | 76 | 1013.9 |
| 20260905130611 | 78 | 192 | 1.0 | 4.0 | 0.00 | 0.00 | 0.00 | 76 | 1013.8 |
| 20260905125602 | 78 | 176 | 1.0 | 4.0 | 0.00 | 0.00 | 0.00 | 76 | 1013.7 |
| 20260905125557 | 78 | 184 | 1.0 | 4.0 | 0.00 | 0.00 | 0.00 | 76 | 1013.6 |
| 20260905124552 | 78 | 178 | 1.0 | 4.0 | 0.00 | 0.00 | 0.00 | 76 | 1013.5 |
| 20260905124047 | 78 | 174 | 2.0 | 6.0 | 0.00 | 0.00 | 0.00 | 76 | 1013.4 |
| 20260905123541 | 78 | 182 | 1.0 | 6.0 | 0.00 | 0.00 | 0.00 | 76 | 1013.3 |
| 20260905123041 | 78 | 179 | 1.0 | 5.0 | 0.00 | 0.00 | 0.00 | 76 | 1013.4 |
| 20260905122540 | 78 | 163 | 2.0 | 5.0 | 0.00 | 0.00 | 0.00 | 76 | 1013.5 |
| 20260905122034 | 78 | 176 | 2.0 | 4.0 | 0.00 | 0.00 | 0.00 | 76 | 1013.5 |
| 20260905121531 | 78 | 161 | 2.0 | 4.0 | 0.00 | 0.00 | 0.00 | 76 | 1013.5 |
| 20260905121021 | 78 | 174 | 2.0 | 3.0 | 0.00 | 0.00 | 0.00 | 76 | 1013.5 |
| 20260905120510 | 78 | 188 | 2.0 | 6.0 | 0.00 | 0.00 | 0.00 | 76 | 1013.5 |
| 20260905120501 | 78 | 193 | 1.0 | 7.0 | 0.00 | 0.00 | 0.00 | 75 | 1013.4 |
| 20260905120106 | 78 | 217 | 2.0 | 6.0 | 0.00 | 0.00 | 0.00 | 75 | 1013.5 |
| 20260905114954 | 78 | 186 | 2.0 | 7.0 | 0.00 | 0.00 | 0.00 | 75 | 1013.4 |
| 20260905114443 | 78 | 188 | 2.0 | 6.0 | 0.00 | 0.00 | 0.00 | 75 | 1013.5 |
| 20260905113940 | 78 | 183 | 2.0 | 4.0 | 0.00 | 0.00 | 0.00 | 75 | 1013.5 |
| 20260905113430 | 78 | 184 | 1.0 | 4.0 | 0.00 | 0.00 | 0.00 | 75 | 1013.4 |
| 20260905112928 | 78 | 189 | 0.0 | 4.0 | 0.00 | 0.00 | 0.00 | 74 | 1013.5 |
| 20260905112424 | 78 | 185 | 0.0 | 0.0 | 0.00 | 0.00 | 0.00 | 74 | 1013.5 |
| 20260905111925 | 78 | 179 | 0.0 | 0.0 | 0.00 | 0.00 | 0.00 | 74 | 1013.4 |
| 20260905111417 | 78 | 178 | 0.0 | 0.0 | 0.00 | 0.00 | 0.00 | 74 | 1013.4 |
| 20260905110904 | 78 | 184 | 0.0 | 1.0 | 0.00 | 0.00 | 0.00 | 74 | 1013.3 |
| 20260905110856 | 78 | 189 | 0.0 | 3.0 | 0.00 | 0.00 | 0.00 | 74 | 1013.3 |
| 20260905105846 | 78 | 189 | 0.0 | 3.0 | 0.00 | 0.00 | 0.00 | 74 | 1013.4 |